,,,PA_Meas_PMT16A,,PR_Meas_QMR101_102,,RH_Meas_QMH101,,SR_Meas_QMS101,,TA_Meas_QMH101,,GenWind,,GenWind,
date,time,status,PA,status,PR,status,RH,status,SR,status,TA,status,DirAvg,status,SpdAvg,
2012-02-23, 00:00:04,VALID,1003.9,VALID,0,VALID,92.3247,VALID,0,VALID,24.422,VALID,341,VALID,0,
2012-02-23, 00:01:04,VALID,1003.87,VALID,0,VALID,92.2713,VALID,0,VALID,24.4414,VALID,345,VALID,0.207813,
2012-02-23, 00:02:04,VALID,1003.84,VALID,0,VALID,91.9051,VALID,0.0815089,VALID,24.422,VALID,7,VALID,0.570313,
2012-02-23, 00:03:04,VALID,1003.78,VALID,0,VALID,91.8517,VALID,0,VALID,24.3636,VALID,10,VALID,0.632422,
2012-02-23, 00:04:04,VALID,1003.76,VALID,0,VALID,91.9509,VALID,0,VALID,24.3441,VALID,10,VALID,0.466016,
2012-02-23, 00:05:04,VALID,1003.73,VALID,0,VALID,92.1187,VALID,0,VALID,24.3459,VALID,10,VALID,0.522656,
2012-02-23, 00:06:04,VALID,1003.68,VALID,0,VALID,92.195,VALID,0,VALID,24.3459,VALID,10,VALID,0.546875,
2012-02-23, 00:07:04,VALID,1003.67,VALID,0,VALID,92.195,VALID,0,VALID,24.3052,VALID,10,VALID,0.334375,
2012-02-23, 00:08:04,VALID,1003.62,VALID,0,VALID,92.3476,VALID,0,VALID,24.3052,VALID,10,VALID,0.5375,
2012-02-23, 00:09:04,VALID,1003.57,VALID,0,VALID,92.3247,VALID,0.0815089,VALID,24.3265,VALID,10,VALID,0.396875,
2012-02-23, 00:10:04,VALID,1003.55,VALID,0,VALID,92.3095,VALID,0.0815089,VALID,24.3052,VALID,10,VALID,0.271875,
2012-02-23, 00:11:04,VALID,1003.49,VALID,0,VALID,92.2942,VALID,0,VALID,24.3052,VALID,10,VALID,0,
2012-02-23, 00:12:04,VALID,1003.47,VALID,0,VALID,92.2942,VALID,0.0815089,VALID,24.2644,VALID,10,VALID,0,
2012-02-23, 00:13:04,VALID,1003.41,VALID,0,VALID,92.3323,VALID,0,VALID,24.2662,VALID,10,VALID,0.498437,
2012-02-23, 00:14:04,VALID,1003.37,VALID,0,VALID,92.3629,VALID,0,VALID,24.2255,VALID,10,VALID,0.351172,
2012-02-23, 00:15:04,VALID,1003.32,VALID,0,VALID,92.4468,VALID,0,VALID,24.2468,VALID,10,VALID,0.530859,
2012-02-23, 00:16:04,VALID,1003.31,VALID,0,VALID,92.5536,VALID,0,VALID,24.2468,VALID,10,VALID,0.463672,
2012-02-23, 00:17:04,VALID,1003.27,VALID,0,VALID,92.6375,VALID,0.0815089,VALID,24.2857,VALID,10,VALID,0.633203,
2012-02-23, 00:18:04,VALID,1003.24,VALID,0,VALID,92.4925,VALID,0.0815089,VALID,24.3052,VALID,10,VALID,0.223438,
2012-02-23, 00:19:04,VALID,1003.27,VALID,0,VALID,92.2866,VALID,0.0815089,VALID,24.3052,VALID,10,VALID,0.432422,
2012-02-23, 00:20:04,VALID,1003.23,VALID,0,VALID,92.2942,VALID,0.0815089,VALID,24.3246,VALID,10,VALID,0.252734,
2012-02-23, 00:21:04,VALID,1003.26,VALID,0,VALID,92.34,VALID,0.0815089,VALID,24.2839,VALID,10,VALID,0.0453125,
2012-02-23, 00:22:04,VALID,1003.26,VALID,0,VALID,92.3781,VALID,0.0815089,VALID,24.3246,VALID,10,VALID,0,
2012-02-23, 00:23:04,VALID,1003.32,VALID,0,VALID,92.34,VALID,0.0815089,VALID,24.2839,VALID,10,VALID,0.177734,
2012-02-23, 00:24:04,VALID,1003.32,VALID,0,VALID,92.3018,VALID,0,VALID,24.2875,VALID,10,VALID,0.0890625,
2012-02-23, 00:25:04,VALID,1003.32,VALID,0,VALID,92.3018,VALID,0,VALID,24.2662,VALID,10,VALID,0.195313,
2012-02-23, 00:26:04,VALID,1003.36,VALID,0,VALID,92.2789,VALID,0,VALID,24.2857,VALID,10,VALID,0.453125,
2012-02-23, 00:27:04,VALID,1003.41,VALID,0,VALID,92.3171,VALID,0,VALID,24.2681,VALID,10,VALID,0.219922,
2012-02-23, 00:28:04,VALID,1003.43,VALID,0,VALID,92.3781,VALID,0,VALID,24.2681,VALID,10,VALID,0,
2012-02-23, 00:29:04,VALID,1003.46,VALID,0,VALID,92.462,VALID,0,VALID,24.2662,VALID,24,VALID,0.408594,
2012-02-23, 00:30:04,VALID,1003.44,VALID,0,VALID,92.462,VALID,0,VALID,24.2681,VALID,24,VALID,0.105859,
2012-02-23, 00:31:04,VALID,1003.48,VALID,0,VALID,92.5154,VALID,0,VALID,24.2875,VALID,24,VALID,0.409375,
2012-02-23, 00:32:04,VALID,1003.45,VALID,0,VALID,92.5231,VALID,0,VALID,24.2875,VALID,24,VALID,0.324609,
2012-02-23, 00:33:04,VALID,1003.48,VALID,0,VALID,92.4849,VALID,0,VALID,24.2662,VALID,24,VALID,0.217187,
2012-02-23, 00:34:04,VALID,1003.46,VALID,0,VALID,92.4239,VALID,0,VALID,24.2681,VALID,24,VALID,0.145703,
2012-02-23, 00:35:04,VALID,1003.46,VALID,0,VALID,92.4163,VALID,0,VALID,24.2486,VALID,24,VALID,0.182031,
2012-02-23, 00:36:04,VALID,1003.44,VALID,0,VALID,92.3934,VALID,0,VALID,24.2681,VALID,24,VALID,0.523828,
2012-02-23, 00:37:04,VALID,1003.43,VALID,0,VALID,92.4315,VALID,0,VALID,24.2486,VALID,24,VALID,0.322656,
2012-02-23, 00:38:04,VALID,1003.42,VALID,0,VALID,92.5383,VALID,0,VALID,24.2681,VALID,24,VALID,0.770703,
2012-02-23, 00:39:04,VALID,1003.39,VALID,0,VALID,92.5154,VALID,0,VALID,24.2486,VALID,24,VALID,0.382031,
2012-02-23, 00:40:04,VALID,1003.38,VALID,0,VALID,92.5231,VALID,0,VALID,24.2468,VALID,24,VALID,0.382031,
2012-02-23, 00:41:04,VALID,1003.35,VALID,0,VALID,92.5154,VALID,0,VALID,24.2486,VALID,24,VALID,0.361328,
2012-02-23, 00:42:04,VALID,1003.34,VALID,0,VALID,92.5078,VALID,0,VALID,24.2468,VALID,24,VALID,0.116016,
2012-02-23, 00:43:04,VALID,1003.32,VALID,0,VALID,92.4849,VALID,0,VALID,24.2486,VALID,24,VALID,0.322266,
2012-02-23, 00:44:04,VALID,1003.32,VALID,0,VALID,92.401,VALID,0,VALID,24.2273,VALID,24,VALID,0.465234,
2012-02-23, 00:45:04,VALID,1003.34,VALID,0,VALID,92.4468,VALID,0,VALID,24.2078,VALID,24,VALID,0.391406,
2012-02-23, 00:46:04,VALID,1003.34,VALID,0,VALID,92.5612,VALID,0,VALID,24.2291,VALID,24,VALID,0.403125,
2012-02-23, 00:47:04,VALID,1003.29,VALID,0,VALID,92.5612,VALID,0,VALID,24.2291,VALID,24,VALID,0.4375,
2012-02-23, 00:48:04,VALID,1003.25,VALID,0,VALID,92.5917,VALID,0,VALID,24.2097,VALID,24,VALID,0,
2012-02-23, 00:49:04,VALID,1003.19,VALID,0,VALID,92.729,VALID,0,VALID,24.1884,VALID,24,VALID,0.458984,
2012-02-23, 00:50:04,VALID,1003.14,VALID,0,VALID,92.6909,VALID,0,VALID,24.2097,VALID,24,VALID,0.395703,
2012-02-23, 00:51:04,VALID,1003.07,VALID,0,VALID,92.6222,VALID,0,VALID,24.1689,VALID,24,VALID,0.510938,
2012-02-23, 00:52:04,VALID,1003.04,VALID,0,VALID,92.7596,VALID,0,VALID,24.2097,VALID,24,VALID,0.461719,
2012-02-23, 00:53:04,VALID,1003.01,VALID,0,VALID,92.8358,VALID,0,VALID,24.2291,VALID,24,VALID,0.294922,
2012-02-23, 00:54:04,VALID,1002.94,VALID,0,VALID,92.8435,VALID,0,VALID,24.2291,VALID,24,VALID,0.274609,
2012-02-23, 00:55:04,VALID,1002.91,VALID,0,VALID,92.9884,VALID,0,VALID,24.2875,VALID,19,VALID,0.794141,
2012-02-23, 00:56:04,VALID,1002.91,VALID,0,VALID,92.9045,VALID,0,VALID,24.3265,VALID,19,VALID,0.122656,
2012-02-23, 00:57:04,VALID,1002.89,VALID,0,VALID,92.6985,VALID,0,VALID,24.3246,VALID,19,VALID,0.214844,
2012-02-23, 00:58:04,VALID,1002.91,VALID,0,VALID,92.5536,VALID,0,VALID,24.3636,VALID,19,VALID,0.364844,
2012-02-23, 00:59:04,VALID,1002.91,VALID,0,VALID,92.4544,VALID,0,VALID,24.3654,VALID,19,VALID,0.420312,
2012-02-23, 01:00:04,VALID,1002.93,VALID,0,VALID,92.3781,VALID,0,VALID,24.3636,VALID,19,VALID,0.0117188,
2012-02-23, 01:01:04,VALID,1002.96,VALID,0,VALID,92.2713,VALID,0,VALID,24.3636,VALID,19,VALID,0,
2012-02-23, 01:02:04,VALID,1002.96,VALID,0,VALID,92.2027,VALID,0,VALID,24.3849,VALID,19,VALID,0,
2012-02-23, 01:03:04,VALID,1002.99,VALID,0,VALID,92.1798,VALID,0,VALID,24.3849,VALID,19,VALID,0,
2012-02-23, 01:04:04,VALID,1003.01,VALID,0,VALID,92.1721,VALID,0,VALID,24.3849,VALID,19,VALID,0,
2012-02-23, 01:05:04,VALID,1003,VALID,0,VALID,92.1492,VALID,0,VALID,24.3441,VALID,19,VALID,0,
2012-02-23, 01:06:04,VALID,1003,VALID,0,VALID,92.1492,VALID,0,VALID,24.3654,VALID,19,VALID,0,
2012-02-23, 01:07:04,VALID,1003.01,VALID,0,VALID,92.1492,VALID,0,VALID,24.3459,VALID,19,VALID,0.646484,
2012-02-23, 01:08:04,VALID,1002.96,VALID,0,VALID,92.1798,VALID,0,VALID,24.3265,VALID,16,VALID,0.521094,
2012-02-23, 01:09:04,VALID,1002.97,VALID,0,VALID,92.2789,VALID,0,VALID,24.3052,VALID,14,VALID,0.790234,
2012-02-23, 01:10:04,VALID,1002.9,VALID,0,VALID,92.4773,VALID,0,VALID,24.3265,VALID,358,VALID,0.922266,
2012-02-23, 01:11:04,VALID,1002.85,VALID,0,VALID,92.5231,VALID,0,VALID,24.3265,VALID,356,VALID,0.7125,
2012-02-23, 01:12:04,VALID,1002.84,VALID,0,VALID,92.5231,VALID,0,VALID,24.3459,VALID,353,VALID,0.770703,
2012-02-23, 01:13:04,VALID,1002.8,VALID,0,VALID,92.4849,VALID,0,VALID,24.3459,VALID,353,VALID,0.665234,
2012-02-23, 01:14:04,VALID,1002.8,VALID,0,VALID,92.5536,VALID,0,VALID,24.3459,VALID,353,VALID,0.549219,
2012-02-23, 01:15:04,VALID,1002.79,VALID,0,VALID,92.607,VALID,0,VALID,24.3654,VALID,353,VALID,0.371484,
2012-02-23, 01:16:04,VALID,1002.86,VALID,0,VALID,92.5917,VALID,0,VALID,24.3459,VALID,353,VALID,0.246875,
2012-02-23, 01:17:04,VALID,1002.85,VALID,0,VALID,92.5841,VALID,0,VALID,24.3246,VALID,353,VALID,0.25,
2012-02-23, 01:18:04,VALID,1002.9,VALID,0,VALID,92.5993,VALID,0,VALID,24.3052,VALID,353,VALID,0.222266,
2012-02-23, 01:19:04,VALID,1002.89,VALID,0,VALID,92.5993,VALID,0,VALID,24.3265,VALID,353,VALID,0,
2012-02-23, 01:20:04,VALID,1002.87,VALID,0,VALID,92.5765,VALID,0,VALID,24.307,VALID,353,VALID,0.132031,
2012-02-23, 01:21:04,VALID,1002.86,VALID,0,VALID,92.5612,VALID,0,VALID,24.2857,VALID,353,VALID,0.115625,
2012-02-23, 01:22:04,VALID,1002.82,VALID,0,VALID,92.5917,VALID,0,VALID,24.2875,VALID,353,VALID,0.110937,
2012-02-23, 01:23:04,VALID,1002.8,VALID,0,VALID,92.6299,VALID,0,VALID,24.2662,VALID,353,VALID,0.255859,
2012-02-23, 01:24:05,VALID,1002.79,VALID,0,VALID,92.668,VALID,0,VALID,24.3052,VALID,353,VALID,0.246484,
2012-02-23, 01:25:05,VALID,1002.75,VALID,0,VALID,92.7062,VALID,0.0815089,VALID,24.3052,VALID,353,VALID,0.515625,
2012-02-23, 01:26:05,VALID,1002.74,VALID,0,VALID,92.6375,VALID,0,VALID,24.2857,VALID,353,VALID,0.337891,
2012-02-23, 01:27:05,VALID,1002.71,VALID,0,VALID,92.7062,VALID,0,VALID,24.2857,VALID,353,VALID,0.457422,
2012-02-23, 01:28:05,VALID,1002.68,VALID,0,VALID,92.6756,VALID,0,VALID,24.2662,VALID,353,VALID,0.534766,
2012-02-23, 01:29:05,VALID,1002.72,VALID,0,VALID,92.6909,VALID,0,VALID,24.2255,VALID,353,VALID,0.5125,
2012-02-23, 01:30:05,VALID,1002.72,VALID,0,VALID,92.7214,VALID,0.0815089,VALID,24.206,VALID,353,VALID,0.632422,
2012-02-23, 01:31:05,VALID,1002.73,VALID,0,VALID,92.8892,VALID,0.0815089,VALID,24.2273,VALID,353,VALID,0.373828,
2012-02-23, 01:32:05,VALID,1002.74,VALID,0,VALID,92.9961,VALID,0,VALID,24.2273,VALID,353,VALID,0.567969,
2012-02-23, 01:33:05,VALID,1002.73,VALID,0,VALID,93.0189,VALID,0.0815089,VALID,24.2468,VALID,1,VALID,0.423047,
2012-02-23, 01:34:05,VALID,1002.74,VALID,0,VALID,92.9808,VALID,0,VALID,24.2273,VALID,1,VALID,0.403516,
2012-02-23, 01:35:05,VALID,1002.73,VALID,0,VALID,93.0113,VALID,0.0815089,VALID,24.2468,VALID,1,VALID,0.582812,
2012-02-23, 01:36:05,VALID,1002.75,VALID,0,VALID,93.0037,VALID,0,VALID,24.2468,VALID,1,VALID,0.480078,
2012-02-23, 01:37:05,VALID,1002.74,VALID,0,VALID,93.0037,VALID,0,VALID,24.2273,VALID,1,VALID,0.065625,
2012-02-23, 01:38:05,VALID,1002.81,VALID,0,VALID,93.0037,VALID,0,VALID,24.2468,VALID,1,VALID,0.390234,
2012-02-23, 01:39:05,VALID,1002.83,VALID,0,VALID,92.9884,VALID,0,VALID,24.2468,VALID,1,VALID,0.417578,
2012-02-23, 01:40:05,VALID,1002.9,VALID,0,VALID,92.9579,VALID,0,VALID,24.2273,VALID,1,VALID,0.248437,
2012-02-23, 01:41:05,VALID,1002.94,VALID,0,VALID,92.8969,VALID,0,VALID,24.2273,VALID,1,VALID,0.417188,
2012-02-23, 01:42:05,VALID,1002.92,VALID,0,VALID,92.8969,VALID,0,VALID,24.2273,VALID,1,VALID,0.252734,
2012-02-23, 01:43:05,VALID,1002.93,VALID,0,VALID,92.8664,VALID,0,VALID,24.2273,VALID,1,VALID,0.324219,
2012-02-23, 01:44:05,VALID,1002.91,VALID,0,VALID,92.9503,VALID,0,VALID,24.2681,VALID,1,VALID,0.205859,
2012-02-23, 01:45:05,VALID,1002.85,VALID,0,VALID,92.9274,VALID,0,VALID,24.2255,VALID,1,VALID,0.00585938,
2012-02-23, 01:46:05,VALID,1002.8,VALID,0,VALID,92.9884,VALID,0,VALID,24.2681,VALID,1,VALID,0.463281,
2012-02-23, 01:47:05,VALID,1002.73,VALID,0,VALID,93.0189,VALID,0,VALID,24.307,VALID,1,VALID,0.562109,
2012-02-23, 01:48:05,VALID,1002.64,VALID,0,VALID,92.9579,VALID,0,VALID,24.2857,VALID,1,VALID,0.588281,
2012-02-23, 01:49:05,VALID,1002.59,VALID,0,VALID,92.9503,VALID,0,VALID,24.3052,VALID,1,VALID,0.663281,
2012-02-23, 01:50:05,VALID,1002.58,VALID,0,VALID,92.9121,VALID,0,VALID,24.3246,VALID,1,VALID,0.583984,
2012-02-23, 01:51:05,VALID,1002.56,VALID,0,VALID,92.8892,VALID,0,VALID,24.3441,VALID,5,VALID,0.714844,
2012-02-23, 01:52:05,VALID,1002.59,VALID,0,VALID,92.8206,VALID,0,VALID,24.383,VALID,6,VALID,0.405078,
2012-02-23, 01:53:05,VALID,1002.6,VALID,0,VALID,92.7977,VALID,0.0815089,VALID,24.4414,VALID,80,VALID,0.780078,
2012-02-23, 01:54:05,VALID,1002.66,VALID,0,VALID,92.5841,VALID,0,VALID,24.5017,VALID,27,VALID,0.308203,
2012-02-23, 01:55:05,VALID,1002.74,VALID,0,VALID,92.3476,VALID,0,VALID,24.5388,VALID,31,VALID,0.280859,
2012-02-23, 01:56:05,VALID,1002.8,VALID,0,VALID,92.0577,VALID,0,VALID,24.5972,VALID,35,VALID,0.525,
2012-02-23, 01:57:05,VALID,1002.8,VALID,0,VALID,91.6457,VALID,0.0815089,VALID,24.675,VALID,28,VALID,0.846484,
2012-02-23, 01:58:05,VALID,1002.83,VALID,0,VALID,91.2719,VALID,0,VALID,24.7529,VALID,20,VALID,0.2375,
2012-02-23, 01:59:05,VALID,1002.84,VALID,0,VALID,90.776,VALID,0.0815089,VALID,24.8327,VALID,20,VALID,0.369922,
2012-02-23, 02:00:05,VALID,1002.85,VALID,0,VALID,90.4709,VALID,0,VALID,24.8697,VALID,20,VALID,0.0324219,
2012-02-23, 02:01:05,VALID,1002.87,VALID,0,VALID,90.3031,VALID,0,VALID,24.8892,VALID,20,VALID,0,
2012-02-23, 02:02:05,VALID,1002.86,VALID,0,VALID,90.1734,VALID,0,VALID,24.8892,VALID,20,VALID,0.238672,
2012-02-23, 02:03:05,VALID,1002.86,VALID,0,VALID,90.12,VALID,0,VALID,24.9087,VALID,20,VALID,0.1,
2012-02-23, 02:04:05,VALID,1002.9,VALID,0,VALID,90.0132,VALID,0,VALID,24.8697,VALID,51,VALID,0.028125,
2012-02-23, 02:05:05,VALID,1002.88,VALID,0,VALID,89.9216,VALID,0,VALID,24.9106,VALID,61,VALID,0.382813,
2012-02-23, 02:06:05,VALID,1002.81,VALID,0,VALID,89.8911,VALID,0,VALID,24.8697,VALID,61,VALID,0.270312,
2012-02-23, 02:07:05,VALID,1002.75,VALID,0,VALID,89.8682,VALID,0,VALID,24.8697,VALID,18,VALID,0.794922,
2012-02-23, 02:08:05,VALID,1002.69,VALID,0,VALID,89.7538,VALID,0,VALID,24.9087,VALID,6,VALID,0.888281,
2012-02-23, 02:09:05,VALID,1002.6,VALID,0,VALID,89.1664,VALID,0,VALID,24.9476,VALID,6,VALID,1.54492,
2012-02-23, 02:10:05,VALID,1002.5,VALID,0,VALID,88.4111,VALID,0,VALID,25.1053,VALID,11,VALID,2.01484,
2012-02-23, 02:11:05,VALID,1002.42,VALID,0,VALID,87.5338,VALID,0,VALID,25.2221,VALID,18,VALID,1.21797,
2012-02-23, 02:12:05,VALID,1002.36,VALID,0,VALID,86.6565,VALID,0,VALID,25.3584,VALID,2,VALID,1.58398,
2012-02-23, 02:13:05,VALID,1002.33,VALID,0,VALID,85.8173,VALID,0,VALID,25.4734,VALID,31,VALID,0.962109,
2012-02-23, 02:14:05,VALID,1002.33,VALID,0,VALID,85.3977,VALID,0,VALID,25.5707,VALID,44,VALID,0.392969,
2012-02-23, 02:15:05,VALID,1002.32,VALID,0,VALID,85.2222,VALID,0,VALID,25.6097,VALID,14,VALID,0.4,
2012-02-23, 02:16:05,VALID,1002.35,VALID,0,VALID,84.5356,VALID,0,VALID,25.6486,VALID,11,VALID,0.641406,
2012-02-23, 02:17:05,VALID,1002.36,VALID,0,VALID,84.0626,VALID,0,VALID,25.7265,VALID,5,VALID,0.688672,
2012-02-23, 02:18:05,VALID,1002.33,VALID,0,VALID,82.8802,VALID,0,VALID,25.8843,VALID,16,VALID,1.31758,
2012-02-23, 02:19:05,VALID,1002.36,VALID,0,VALID,81.9265,VALID,0,VALID,26.0206,VALID,15,VALID,0.691406,
2012-02-23, 02:20:05,VALID,1002.35,VALID,0,VALID,81.8197,VALID,0,VALID,26.0966,VALID,21,VALID,1.04922,
2012-02-23, 02:21:05,VALID,1002.32,VALID,0,VALID,81.1331,VALID,0,VALID,26.1765,VALID,13,VALID,1.3957,
2012-02-23, 02:22:05,VALID,1002.29,VALID,0,VALID,81.0645,VALID,0,VALID,26.2544,VALID,15,VALID,0.903906,
2012-02-23, 02:23:05,VALID,1002.28,VALID,0,VALID,81.2628,VALID,0.0815089,VALID,26.2329,VALID,25,VALID,0.7125,
2012-02-23, 02:24:05,VALID,1002.23,VALID,0,VALID,80.5152,VALID,0,VALID,26.2329,VALID,350,VALID,1.61211,
2012-02-23, 02:25:05,VALID,1002.22,VALID,0,VALID,81.0111,VALID,0.0815089,VALID,26.2933,VALID,17,VALID,1.13477,
2012-02-23, 02:26:05,VALID,1002.25,VALID,0,VALID,80.4771,VALID,0,VALID,26.2719,VALID,10,VALID,1.03867,
2012-02-23, 02:27:05,VALID,1002.27,VALID,0,VALID,80.2863,VALID,0,VALID,26.2913,VALID,339,VALID,1.51875,
2012-02-23, 02:28:05,VALID,1002.31,VALID,0,VALID,80.561,VALID,0,VALID,26.3108,VALID,17,VALID,0.567578,
2012-02-23, 02:29:05,VALID,1002.33,VALID,0,VALID,79.8668,VALID,0,VALID,26.3108,VALID,10,VALID,1.43633,
2012-02-23, 02:30:05,VALID,1002.39,VALID,0,VALID,79.9278,VALID,0,VALID,26.3693,VALID,34,VALID,0.675,
2012-02-23, 02:31:05,VALID,1002.39,VALID,0,VALID,80.294,VALID,0,VALID,26.3907,VALID,73,VALID,0.638672,
2012-02-23, 02:32:05,VALID,1002.43,VALID,0,VALID,80.2635,VALID,0,VALID,26.3498,VALID,82,VALID,0.223828,
2012-02-23, 02:33:05,VALID,1002.46,VALID,0,VALID,80.5381,VALID,0,VALID,26.3088,VALID,82,VALID,0.335547,
2012-02-23, 02:34:05,VALID,1002.47,VALID,0,VALID,80.828,VALID,0,VALID,26.2933,VALID,84,VALID,0.183984,
2012-02-23, 02:35:05,VALID,1002.53,VALID,0,VALID,80.683,VALID,0.0815089,VALID,26.2933,VALID,114,VALID,0.446484,
2012-02-23, 02:36:05,VALID,1002.48,VALID,0,VALID,80.5152,VALID,0,VALID,26.2524,VALID,107,VALID,0.832031,
2012-02-23, 02:37:05,VALID,1002.48,VALID,0,VALID,80.4389,VALID,0,VALID,26.2933,VALID,112,VALID,0.511719,
2012-02-23, 02:38:05,VALID,1002.48,VALID,0,VALID,80.6296,VALID,0,VALID,26.2933,VALID,112,VALID,0.505859,
2012-02-23, 02:39:05,VALID,1002.45,VALID,0,VALID,80.8051,VALID,0,VALID,26.2739,VALID,110,VALID,0.426172,
2012-02-23, 02:40:05,VALID,1002.44,VALID,0,VALID,80.9729,VALID,0.0815089,VALID,26.2134,VALID,110,VALID,0.357031,
2012-02-23, 02:41:05,VALID,1002.45,VALID,0,VALID,81.4612,VALID,0.0815089,VALID,26.1745,VALID,110,VALID,0.369922,
2012-02-23, 02:42:05,VALID,1002.46,VALID,0,VALID,82.0715,VALID,0,VALID,26.1375,VALID,110,VALID,0.54375,
2012-02-23, 02:43:05,VALID,1002.47,VALID,0,VALID,82.5216,VALID,0,VALID,26.0187,VALID,124,VALID,0.692578,
2012-02-23, 02:44:05,VALID,1002.46,VALID,0,VALID,82.903,VALID,0,VALID,25.9213,VALID,125,VALID,0.501172,
2012-02-23, 02:45:05,VALID,1002.48,VALID,0,VALID,83.2997,VALID,0,VALID,25.8629,VALID,122,VALID,0.479297,
2012-02-23, 02:46:05,VALID,1002.54,VALID,0,VALID,83.3989,VALID,0,VALID,25.8453,VALID,121,VALID,0.529688,
2012-02-23, 02:47:05,VALID,1002.55,VALID,0,VALID,83.9711,VALID,0,VALID,25.8064,VALID,121,VALID,0.533594,
2012-02-23, 02:48:05,VALID,1002.58,VALID,0,VALID,84.4822,VALID,0,VALID,25.7285,VALID,130,VALID,0.646094,
2012-02-23, 02:49:05,VALID,1002.62,VALID,0,VALID,84.8866,VALID,0,VALID,25.6292,VALID,130,VALID,0.525391,
2012-02-23, 02:50:05,VALID,1002.63,VALID,0,VALID,85.123,VALID,0,VALID,25.5921,VALID,130,VALID,0.691016,
2012-02-23, 02:51:05,VALID,1002.66,VALID,0,VALID,86.0156,VALID,0,VALID,25.5142,VALID,130,VALID,0.585938,
2012-02-23, 02:52:05,VALID,1002.68,VALID,0,VALID,86.4886,VALID,0,VALID,25.4558,VALID,130,VALID,0.532031,
2012-02-23, 02:53:05,VALID,1002.71,VALID,0,VALID,86.6336,VALID,0,VALID,25.3974,VALID,123,VALID,0.475391,
2012-02-23, 02:54:05,VALID,1002.75,VALID,0,VALID,86.4962,VALID,0,VALID,25.3584,VALID,118,VALID,0.851563,
2012-02-23, 02:55:05,VALID,1002.83,VALID,0,VALID,86.481,VALID,0,VALID,25.337,VALID,127,VALID,1.23398,
2012-02-23, 02:56:05,VALID,1002.83,VALID,0,VALID,87.1066,VALID,0,VALID,25.337,VALID,121,VALID,1.76094,
2012-02-23, 02:57:05,VALID,1002.79,VALID,0,VALID,85.1307,VALID,0,VALID,25.2007,VALID,139,VALID,3.23555,
2012-02-23, 02:58:05,VALID,1002.77,VALID,0,VALID,85.7791,VALID,0,VALID,25.1248,VALID,137,VALID,1.70898,
2012-02-23, 02:59:05,VALID,1002.73,VALID,0,VALID,86.1835,VALID,0.0815089,VALID,25.0255,VALID,150,VALID,1.69453,
2012-02-23, 03:00:05,VALID,1002.66,VALID,0,VALID,86.2064,VALID,0.0815089,VALID,25.0274,VALID,136,VALID,1.55469,
2012-02-23, 03:01:05,VALID,1002.67,VALID,0,VALID,86.6183,VALID,0,VALID,24.969,VALID,115,VALID,1.025,
2012-02-23, 03:02:05,VALID,1002.69,VALID,0,VALID,86.8395,VALID,0,VALID,24.9476,VALID,135,VALID,1.60156,
2012-02-23, 03:03:05,VALID,1002.7,VALID,0,VALID,86.9387,VALID,0,VALID,24.969,VALID,148,VALID,2.89492,
2012-02-23, 03:04:05,VALID,1002.74,VALID,0,VALID,87.1142,VALID,0,VALID,24.9671,VALID,137,VALID,3.12734,
2012-02-23, 03:05:05,VALID,1002.78,VALID,0,VALID,87.3736,VALID,0,VALID,24.9476,VALID,131,VALID,2.59219,
2012-02-23, 03:06:05,VALID,1002.76,VALID,0,VALID,87.4804,VALID,0.0815089,VALID,24.9476,VALID,119,VALID,1.97852,
2012-02-23, 03:07:05,VALID,1002.77,VALID,0,VALID,87.3888,VALID,0.0815089,VALID,24.9476,VALID,121,VALID,2.95039,
2012-02-23, 03:08:05,VALID,1002.76,VALID,0,VALID,88.1441,VALID,0,VALID,24.9106,VALID,104,VALID,2.12539,
2012-02-23, 03:09:05,VALID,1002.8,VALID,0.5,VALID,88.9451,VALID,0,VALID,24.7956,VALID,93,VALID,2.26836,
2012-02-23, 03:10:05,VALID,1002.8,VALID,0,VALID,89.3952,VALID,0,VALID,24.638,VALID,104,VALID,2.23828,
2012-02-23, 03:11:05,VALID,1002.78,VALID,0,VALID,89.8987,VALID,0.0815089,VALID,24.4998,VALID,93,VALID,1.98945,
2012-02-23, 03:12:05,VALID,1002.76,VALID,0.5,VALID,90.3793,VALID,0,VALID,24.4025,VALID,77,VALID,1.99922,
2012-02-23, 03:13:05,VALID,1002.76,VALID,0,VALID,90.9286,VALID,0,VALID,24.3033,VALID,84,VALID,1.44062,
2012-02-23, 03:14:05,VALID,1002.71,VALID,0.5,VALID,91.1651,VALID,0,VALID,24.2468,VALID,75,VALID,2.24805,
2012-02-23, 03:15:05,VALID,1002.7,VALID,0,VALID,91.5466,VALID,0.0815089,VALID,24.1902,VALID,90,VALID,1.29453,
2012-02-23, 03:16:05,VALID,1002.68,VALID,0.5,VALID,92.0119,VALID,0,VALID,24.1123,VALID,84,VALID,0.654688,
2012-02-23, 03:17:05,VALID,1002.62,VALID,1,VALID,92.34,VALID,0,VALID,24.0326,VALID,68,VALID,0.682813,
2012-02-23, 03:18:05,VALID,1002.58,VALID,0.5,VALID,92.6604,VALID,0.0815089,VALID,23.9955,VALID,75,VALID,0.814062,
2012-02-23, 03:19:05,VALID,1002.54,VALID,0.5,VALID,92.935,VALID,0,VALID,23.9371,VALID,59,VALID,0.823047,
2012-02-23, 03:20:05,VALID,1002.46,VALID,1,VALID,93.1791,VALID,0,VALID,23.8769,VALID,79,VALID,1.4625,
2012-02-23, 03:21:05,VALID,1002.4,VALID,0.5,VALID,93.4004,VALID,0,VALID,23.838,VALID,80,VALID,1.4918,
2012-02-23, 03:22:05,VALID,1002.38,VALID,0.5,VALID,93.6064,VALID,0,VALID,23.8203,VALID,68,VALID,0.798828,
2012-02-23, 03:23:05,VALID,1002.36,VALID,0,VALID,93.7589,VALID,0,VALID,23.7601,VALID,65,VALID,0.80625,
2012-02-23, 03:24:05,VALID,1002.36,VALID,0,VALID,93.8886,VALID,0,VALID,23.7637,VALID,76,VALID,0.733984,
2012-02-23, 03:25:05,VALID,1002.36,VALID,0,VALID,94.0107,VALID,0,VALID,23.7212,VALID,75,VALID,0.572656,
2012-02-23, 03:26:05,VALID,1002.32,VALID,0,VALID,94.1251,VALID,0,VALID,23.7212,VALID,24,VALID,0.709766,
2012-02-23, 03:27:05,VALID,1002.28,VALID,0,VALID,94.1709,VALID,0,VALID,23.723,VALID,25,VALID,0.766797,
2012-02-23, 03:28:05,VALID,1002.26,VALID,0,VALID,94.2014,VALID,0,VALID,23.6823,VALID,50,VALID,0.617969,
2012-02-23, 03:29:05,VALID,1002.26,VALID,0,VALID,94.1022,VALID,0,VALID,23.6257,VALID,51,VALID,0.804688,
2012-02-23, 03:30:05,VALID,1002.24,VALID,0,VALID,94.1099,VALID,0,VALID,23.6062,VALID,30,VALID,1.2668,
2012-02-23, 03:31:05,VALID,1002.27,VALID,0,VALID,93.9725,VALID,0,VALID,23.5071,VALID,82,VALID,1.22773,
2012-02-23, 03:32:05,VALID,1002.23,VALID,0,VALID,93.9649,VALID,0,VALID,23.4487,VALID,78,VALID,0.366406,
2012-02-23, 03:33:05,VALID,1002.22,VALID,0,VALID,93.82,VALID,0,VALID,23.3709,VALID,35,VALID,0.992578,
2012-02-23, 03:34:05,VALID,1002.2,VALID,0,VALID,93.82,VALID,0,VALID,23.3125,VALID,111,VALID,1.58633,
2012-02-23, 03:35:05,VALID,1002.16,VALID,0.5,VALID,93.9573,VALID,0.0815089,VALID,23.3125,VALID,89,VALID,1.21563,
2012-02-23, 03:36:05,VALID,1002.22,VALID,0,VALID,94.0183,VALID,0,VALID,23.2736,VALID,60,VALID,0.695703,
2012-02-23, 03:37:05,VALID,1002.24,VALID,0,VALID,94.0107,VALID,0,VALID,23.2541,VALID,94,VALID,2.06641,
2012-02-23, 03:38:05,VALID,1002.27,VALID,0,VALID,93.9649,VALID,0,VALID,23.2541,VALID,70,VALID,0.957422,
2012-02-23, 03:39:05,VALID,1002.33,VALID,0,VALID,93.9649,VALID,0,VALID,23.2524,VALID,96,VALID,1.88086,
2012-02-23, 03:40:05,VALID,1002.25,VALID,0,VALID,93.7818,VALID,0,VALID,23.2736,VALID,78,VALID,2.31797,
2012-02-23, 03:41:05,VALID,1002.23,VALID,0,VALID,93.5911,VALID,0,VALID,23.2736,VALID,58,VALID,0.972266,
2012-02-23, 03:42:05,VALID,1002.16,VALID,0,VALID,93.5911,VALID,0,VALID,23.2736,VALID,52,VALID,1.00703,
2012-02-23, 03:43:05,VALID,1002.14,VALID,0,VALID,93.553,VALID,0,VALID,23.2913,VALID,72,VALID,2.33242,
2012-02-23, 03:44:05,VALID,1002.1,VALID,0,VALID,93.5911,VALID,0,VALID,23.332,VALID,51,VALID,1.78555,
2012-02-23, 03:45:05,VALID,1002.14,VALID,0,VALID,93.6445,VALID,0,VALID,23.3514,VALID,14,VALID,0.960938,